SCP
0 0 0 0 0 0 0 0 0 0 0 0 0 0 0 0 0 0 0 0 0 0 0 0 0 0 0 0 0 0 0 0 0 0 0 0 0 0 0 0 0 0 0 0 0 0 -0 0 0 -0 0 0 -0 -0
0 0 0 0 0 0 0 0 0 0 0 0 0 0 0 0 0 0 0 0 0 0 0 0 -0 0 0 0 0 0 0 0 0 0 0 0 0 0 0 0 0 0 0 0 0 0 0 0 -0 0 -0 -0 -0 -0
0 0 0 0 0 0 0 0 0 0 0 0 0 0 0 0 0 0 0 0 0 0 0 0 0 -0 0 -0 0 0 0 0 0 0 0 0 0 0 -0 0 0 0 0 0 0 0 -0 -0 -0 -0 -0 0 0 0
0 0 0 0 0 0 0 0 0 0 0 0 0 0 0 0 0 0 0 0 0 0 0 0 0 -0 0 0 0 0 0 0 0 0 0 0 0 0 -0 -0 0 0 0 0 0 -0 -0 0 0 0 0 0 0 -0
0 0 0 0 0 0 0 0 0 0 0 0 0 0 0 0 0 0 0 0 0 0 0 0 -0 -0 0 -0 0 0 0 0 0 0 0 0 -0 -0 -0 -0 0 0 0 -0 0 0 0 0 0 0 0 0 -0 0
0 0 0 0 0 0 0 0 0 0 0 0 0 0 0 0 0 0 0 0 0 0 0 0 0 0 -0 0 0 0 0 0 0 0 0 -0 -0 -0 -0 0 0 0 0 0 0 0 0 0 0 0 0 0 0 -0
0 0 0 0 0 0 0 0 0 0 0 0 0 0 0 0 0 0 0 0 0 0 0 0 -0 0 0 0 0 0 0 0 0 0 -0 -0 -0 -0 -0 0 0 -0 -0 -0 0 0 0 0 0 0 0 0 0 -0
0 0 0 0 0 -0 0 0 0 0 0 0 0 0 0 0 0 0 0 0 0 0 0 -0 -0 0 -0 0 -0 0 0 0 0 0 -0 -0 -0 -0 -0 0 0 -0 -0 0 0 0 0 0 0 0 0 0 0 -0
0 0 0 0 -0 0 0 0 0 0 0 0 0 0 0 0 0 0 0 0 0 0 0 0 0 0 0 0 0 0 0 0 0 -0 0 -0 -0 -0 -0 -0 -0 -0 -0 0 0 0 0 0 0 0 -0 -0 0 -0
0 0 0 0 -0 0 0 0 0 0 0 0 0 0 0 0 0 0 0 0 0 0 0 0 0 0 0 0 -0 0 0 -0 0 0 0 -0 -0 0 -0 -0 -0 -0 0 0 0 0 0 0 0 0 -0 -0 0 0
0 0 0 0 0 0 0 0 0 -0 0 0 0 0 0 0 0 0 0 0 0 -0 -0 0 0 0 0 0 0 -0 -0 -0 -0 0 -0 -0 -0 0 -0 0 -0 -0 -0 0 0 0 0 0 0 0 0 -0 0 -0
0 0 0 0 0 0 0 -0 -0 0 0 0 0 0 0 0 0 -0 -0 0 0 0 0 0 0 0 0 0 0 -0 0 -0 0 -0 -0 -0 -0 -0 -0 0 -0 -0 0 0 0 0 0 0 0 0 0 -0 -0 0
0 0 0 0 0 0 -0 -0 -0 -0 0 0 0 0 0 0 0 -0 -0 0 -0 0 0 0 0 0 0 0 0 0 -0 -0 -0 0 -0 -0 0 -0 -0 -0 -0 0 0 0 0 0 0 0 0 0 0 0 -0 -0
0 0 0 0 0 0 -0 -0 -0 0 0 0 0 0 0 0 0 -0 0 0 -0 0 0 -0 -0 0 -0 0 -0 -0 0 -0 -0 0 -0 -0 -0 -0 0 0 0 -0 -0 -0 0 0 -0 0 0 0 0 0 -0 -0
0 0 0 0 0 -0 -0 -0 -0 0 0 0 0 0 0 0 0 0 0 0 -0 -0 -0 0 0 -0 0 0 0 0 0 0 0 -0 -0 -0 -0 -0 0 0 -0 -0 -0 0 0 -0 0 -0 0 0 0 0 0 -0
0 0 0 -0 -0 -0 -0 -0 0 0 0 0 0 0 0 0 0 0 0 0 0 0 0 0 0 0 0 0 0 -0 0 -0 0 0 -0 -0 -0 0 -0 -0 -0 -0 0 -0 -0 -0 -0 -0 0 0 -0 -0 0 -0
0 0 0 -0 -0 -0 -0 0 0 0 0 0 0 0 0 0 -0 0 0 0 0 0 0 0 0 0 0 0 0 -0 0 -0 0 0 -0 0 -0 -0 0 -0 0 -0 -0 -0 -0 -0 -0 -0 -0 0 -0 -0 -0 -0
0 0 -0 -0 -0 0 0 0 0 0 0 0 0 0 0 0 0 0 0 0 0 0 0 0 0 0 0 0 0 -0 0 -0 -0 0 -0 -0 -0 -0 0 0 -0 -0 -0 -0 -0 -0 -0 -0 0 0 -0 -0 0 -0
0 -0 -0 -0 0 0 0 0 0 0 0 0 0 0 0 0 0 0 0 0 0 0 0 0 0 0 0 0 0 0 0 0 0 0 -0 -0 -0 0 0 0 0 0 0 -0 -0 -0 -0 -0 -0 -0 -0 -0 -0 0
-0 -0 -0 -0 0 0 0 0 0 0 0 0 0 0 0 0 0 0 0 0 0 0 0 0 0 0 0 0 0 0 0 0 0 0 -0 -0 -0 0 0 0 0 -0 -0 0 -0 -0 -0 -0 -0 -0 -0 -0 -0 -0
0 0 0 0 0 0 0 0 0 0 0 0 0 0 0 0 0 0 0 0 0 0 0 0 0 0 0 0 0 0 0 0 0 0 0 0 0 0 0 0 0 0 -0 -0 -0 0 -0 0 0 -0 -0 -0 -0 -0
0 0 0 0 0 0 0 0 0 0 0 0 0 0 0 0 0 0 0 0 0 0 0 0 0 0 0 0 0 0 0 0 0 0 0 0 0 0 0 0 0 0 0 0 -0 0 0 0 0 -0 -0 0 -0 0
0 0 0 0 0 0 0 0 0 0 0 0 0 0 0 0 0 0 0 0 0 0 0 0 0 0 0 0 0 0 0 0 0 0 0 0 0 0 0 0 0 0 0 0 0 0 0 -0 0 0 -0 -0 -0 0
0 0 0 0 0 0 0 0 0 0 0 0 0 0 0 0 0 0 0 0 0 0 0 -0 -0 0 0 0 0 0 0 0 0 0 0 0 0 0 0 0 0 0 0 0 0 0 0 -0 0 -0 -0 0 0 0
0 0 0 0 0 0 0 0 0 0 0 0 0 0 0 0 0 0 0 0 0 0 0 0 0 0 0 0 0 0 0 0 0 0 0 0 0 0 0 0 0 0 0 0 0 0 0 -0 -0 -0 -0 -0 0 0
0 0 0 0 0 0 0 0 0 0 0 0 0 0 0 0 0 0 0 0 0 0 -0 -0 -0 0 0 0 0 0 0 0 0 0 0 0 0 0 0 0 0 0 0 0 0 0 0 0 0 0 -0 -0 0 -0
0 0 0 0 0 0 0 0 0 0 0 0 0 0 0 0 0 0 0 0 0 0 0 0 -0 -0 0 0 0 0 0 0 0 0 0 0 0 0 0 0 0 0 0 0 0 0 0 0 0 0 0 -0 -0 -0
0 0 0 0 0 0 0 0 0 0 0 0 0 0 0 0 0 0 0 0 0 0 0 0 0 0 0 0 0 0 0 0 0 0 0 0 0 0 0 0 0 0 0 0 0 0 0 0 0 0 -0 -0 -0 -0
0 0 0 0 0 0 0 0 0 0 0 0 0 0 0 0 0 0 0 0 0 0 0 0 0 0 0 0 0 0 0 0 0 0 0 0 0 0 0 0 0 0 0 0 0 0 0 0 0 0 0 0 0 0
0 0 0 0 0 0 0 0 0 0 0 0 0 0 0 0 0 0 0 0 0 0 0 0 0 0 0 0 0 0 0 0 0 0 0 0 0 0 0 0 0 0 0 0 0 0 0 0 0 0 0 0 0 0
0 0 0 0 0 0 0 0 0 0 0 0 0 0 0 0 0 0 0 0 0 0 0 0 0 0 0 0 0 0 0 0 0 0 0 0 0 0 0 0 0 0 0 0 0 0 0 0 0 0 0 0 0 0
0 0 0 0 0 0 0 0 0 0 0 0 0 0 0 0 0 0 0 0 0 0 0 0 0 0 0 0 0 0 0 0 0 0 0 0 0 0 0 0 0 0 0 0 0 0 0 0 0 0 0 0 0 0
0 0 0 0 0 0 0 0 0 0 0 0 0 0 0 0 0 0 0 0 0 0 0 0 0 0 0 0 0 0 0 0 0 0 0 0 0 0 0 0 0 0 0 0 0 0 0 0 0 0 0 0 0 0
Wind_Speed_500mb
51 47 41 40 38 35 38 35 34 37 34 27 25 22 22 20 16 20 21 21 22 14 43 49 32 21 21 22 4 19 16 11 9 9 5 5 4 4 5 6 3 3 3 4 4 4 13 22 6 6 9 39 47 60
46 44 42 41 38 39 41 36 35 33 28 26 23 19 21 19 16 21 21 25 19 26 30 41 59 54 52 47 30 14 8 6 6 5 4 5 4 5 2 4 7 3 3 4 8 10 5 24 31 17 49 54 63 68
35 33 36 40 44 50 43 34 30 29 29 25 22 19 21 19 21 17 26 24 28 25 44 25 12 20 32 24 40 14 2 5 4 8 3 3 2 5 1 2 3 3 8 4 10 3 14 51 32 52 59 62 79 81
33 34 33 37 42 40 34 34 29 30 28 23 21 20 21 21 23 20 26 28 27 11 9 14 13 22 12 10 27 35 15 5 10 4 2 2 3 3 3 4 4 6 8 7 9 16 43 13 53 64 76 80 76 76
34 35 33 35 37 33 32 27 24 23 23 22 21 19 20 18 24 20 24 35 28 14 8 22 42 29 19 19 25 25 23 9 2 4 3 4 5 5 4 1 2 2 4 2 7 35 22 48 69 72 75 82 66 65
41 39 39 35 36 33 30 25 21 21 23 22 19 19 17 19 19 15 9 10 12 25 8 7 19 17 25 32 35 30 26 11 7 1 5 8 4 3 2 3 2 6 8 19 17 47 43 57 59 66 78 70 52 90
42 40 36 36 35 32 32 25 22 23 22 22 23 20 16 24 19 17 7 12 8 15 7 9 11 13 13 41 36 32 26 9 7 8 5 6 2 1 2 3 11 25 36 33 13 36 34 45 64 76 73 56 80 87
39 37 36 33 32 34 24 22 25 24 26 23 19 14 18 13 15 28 28 27 24 14 8 5 7 12 13 18 12 15 10 8 8 6 6 2 1 5 4 9 22 35 38 16 38 44 46 56 64 69 75 78 65 100
39 38 37 33 32 26 20 19 19 26 29 24 19 18 17 11 10 10 10 8 24 13 5 5 4 5 6 17 10 6 14 4 7 4 2 2 3 3 2 10 28 33 28 38 49 48 48 56 63 68 75 75 73 100
37 36 36 32 27 24 19 17 23 33 33 26 22 10 7 6 9 12 2 7 12 9 9 7 7 6 12 9 21 13 13 7 6 3 7 1 1 10 10 18 22 29 35 37 44 51 54 57 61 67 70 70 70 92
35 36 36 27 23 25 22 21 36 40 37 30 13 8 9 10 12 7 8 9 9 6 11 13 20 8 12 6 4 11 6 6 3 4 4 5 2 3 12 24 26 30 34 34 36 41 43 50 58 61 69 72 77 83
31 36 35 27 24 27 26 30 45 51 27 22 15 14 11 8 8 6 5 7 8 6 11 11 21 27 13 5 5 6 2 2 4 16 4 4 4 4 15 22 27 30 35 42 46 45 45 52 55 54 61 71 78 82
30 35 33 29 30 26 32 36 50 47 29 27 7 8 7 7 5 8 7 5 5 8 13 12 7 13 12 6 2 3 1 3 26 6 3 3 7 5 20 26 27 28 32 39 47 45 44 60 58 51 55 63 71 79
29 35 33 33 34 32 38 49 58 51 23 8 11 8 7 7 8 7 4 4 7 19 27 14 6 11 5 4 4 3 5 7 4 3 3 2 1 11 19 21 25 29 31 36 44 45 42 59 64 49 53 59 67 80
24 26 25 32 22 32 46 64 61 48 10 10 9 8 11 19 3 8 15 17 31 28 38 18 10 9 1 4 1 4 4 1 3 2 3 8 4 10 15 20 30 22 28 36 42 41 42 52 57 53 54 59 64 70
25 24 36 31 28 42 60 66 56 36 11 9 9 7 16 2 5 10 13 25 25 26 18 8 4 4 2 6 3 5 3 4 5 5 9 10 4 5 11 19 21 24 30 39 44 39 42 49 54 48 52 54 58 64
29 38 28 30 37 59 71 62 28 11 9 8 11 23 26 13 13 10 16 28 29 28 3 1 3 11 4 5 1 3 8 7 16 19 18 11 13 1 16 16 17 19 32 39 43 44 55 59 51 51 56 61 53 58
31 31 26 43 64 80 58 20 11 13 11 19 8 12 19 16 11 18 23 22 7 4 4 5 3 3 6 7 5 6 10 18 20 23 12 19 13 6 17 21 16 22 28 34 39 39 53 61 70 63 48 55 48 55
37 33 39 57 73 46 14 17 11 8 18 9 24 17 13 15 21 25 28 25 10 7 10 5 1 3 4 6 14 25 30 36 36 23 21 18 13 12 14 19 18 23 26 29 36 41 46 54 62 66 44 53 53 52
34 35 60 76 67 11 10 9 16 9 7 12 14 16 16 11 16 17 21 13 11 7 3 3 1 5 14 28 29 24 19 36 32 28 15 13 22 19 19 16 20 24 27 29 33 38 43 49 52 61 61 46 55 54
65 80 73 66 26 10 7 10 12 9 7 12 15 16 6 14 16 16 19 16 7 4 3 13 33 34 35 37 33 25 20 35 28 36 34 31 25 20 19 17 18 24 29 30 34 38 45 48 44 47 61 46 40 49
68 74 56 41 6 6 6 13 7 6 7 6 10 15 6 8 7 13 12 8 5 4 14 35 41 39 35 30 25 24 24 26 30 29 26 22 20 15 13 15 12 22 26 28 30 33 37 41 38 40 52 54 52 42
80 53 18 9 5 9 8 13 9 8 5 7 15 6 5 8 15 20 5 10 6 13 34 41 36 29 30 32 29 25 21 29 27 22 27 20 15 16 13 16 15 12 17 21 21 22 27 30 31 37 46 49 53 59
48 15 10 16 12 9 9 12 9 7 8 5 6 5 6 13 16 9 4 9 26 37 42 42 38 36 25 23 30 18 31 25 24 24 24 20 23 22 16 18 15 14 15 11 17 17 22 27 27 32 41 46 44 52
14 11 12 8 13 12 9 10 8 6 7 6 9 4 4 3 4 2 5 16 35 44 44 42 39 30 33 35 27 24 14 17 22 24 17 17 22 23 19 16 14 16 18 13 22 19 22 25 26 28 35 43 43 50
7 12 16 19 11 9 8 10 10 9 4 6 5 9 5 4 6 5 4 32 41 53 53 44 31 34 34 38 31 22 37 28 22 19 17 12 11 8 7 8 8 15 20 22 22 26 19 24 27 31 37 41 44 48
9 8 14 14 10 7 6 5 9 7 8 7 7 7 4 6 3 4 7 16 35 45 43 37 31 42 49 43 36 30 25 20 10 12 12 5 6 3 8 16 17 12 15 21 24 27 25 26 29 34 37 38 42 44
8 9 9 17 9 9 4 6 5 7 6 13 12 5 8 4 3 4 10 11 18 38 32 28 32 49 54 43 33 22 20 20 18 16 23 21 15 14 12 10 9 9 14 19 23 27 30 31 33 38 38 39 40 40
4 9 16 8 3 6 10 6 6 6 3 16 6 5 4 7 16 12 20 31 29 36 48 61 63 55 46 37 32 31 31 28 24 25 26 28 18 9 1 7 8 12 17 20 24 31 34 35 37 37 36 36 36 36
11 14 7 5 5 2 4 6 7 6 12 22 19 35 37 30 24 18 25 35 40 47 53 51 53 45 43 37 34 27 21 18 28 38 34 25 14 7 9 14 16 18 21 24 27 32 35 34 32 30 31 33 34 36
24 10 6 6 4 8 23 26 24 27 34 40 42 44 40 31 40 35 33 34 41 47 47 46 38 30 30 23 14 17 26 24 22 22 16 11 9 14 15 17 21 24 27 28 31 36 36 33 30 30 31 33 35 36
14 7 10 5 4 26 37 23 18 27 27 27 17 21 25 23 12 15 25 35 40 42 43 43 44 42 32 24 19 16 18 21 14 5 5 10 12 14 16 19 21 22 24 28 31 30 28 26 26 28 29 31 32 34
12 14 20 10 7 7 10 14 8 8 9 7 8 15 13 8 6 7 18 23 34 39 41 41 39 34 28 23 19 15 11 6 3 1 1 3 5 7 11 14 16 20 22 23 24 25 24 24 25 26 27 29 31 32
Wind_Direction_500mb
283 284 281 284 283 291 300 301 302 300 291 288 285 283 290 292 261 261 301 301 253 247 278 276 271 250 253 279 302 329 336 353 24 42 35 307 55 316 29 344 199 136 272 261 1 288 283 8 359 356 293 318 312 307
285 276 276 276 280 284 289 295 294 289 286 280 276 267 276 282 249 251 289 305 278 249 263 279 288 282 262 246 268 298 282 351 29 74 8 330 345 2 220 293 17 1 127 249 190 234 306 339 337 308 329 316 313 313
279 281 279 275 274 279 286 289 289 287 281 268 264 257 267 255 239 257 265 302 313 271 288 279 299 278 302 280 243 239 228 25 65 24 213 236 272 120 297 336 322 56 17 229 8 327 331 322 326 324 321 316 314 311
277 282 285 285 281 281 281 281 279 283 276 262 251 241 262 247 234 255 255 295 309 270 279 286 269 242 271 273 193 206 251 298 3 320 65 189 194 308 219 232 176 215 360 319 258 290 323 303 319 324 321 313 310 317
273 277 286 293 291 280 279 279 277 270 263 251 238 239 255 236 231 257 264 295 286 236 286 287 297 247 264 222 198 204 218 221 21 6 9 249 313 18 356 312 242 131 248 285 271 310 300 298 310 315 314 315 322 327
273 271 272 282 286 272 266 274 280 272 259 240 225 244 248 213 229 231 287 277 285 223 289 295 316 286 236 235 197 200 208 181 125 40 277 283 249 159 238 236 148 49 335 301 282 303 307 303 311 323 320 326 334 331
269 267 271 274 276 274 256 254 263 266 245 224 223 225 247 209 221 214 226 306 294 173 264 293 287 279 322 177 189 192 197 180 176 161 226 250 285 98 213 258 13 338 331 325 322 324 319 328 316 326 332 330 327 333
269 264 264 273 279 264 246 254 253 241 219 212 216 224 197 210 223 247 261 275 235 208 257 274 274 300 178 168 171 161 170 222 229 234 222 247 189 207 246 10 345 346 338 328 327 330 326 325 330 336 335 332 338 337
267 258 255 265 279 249 237 243 234 215 203 198 190 191 202 213 228 249 302 241 191 208 256 242 266 286 324 173 144 169 210 181 213 213 138 102 234 215 23 341 351 340 336 318 327 336 335 337 335 337 339 343 343 340
261 251 246 258 274 231 233 228 215 198 189 183 179 171 200 215 193 154 168 173 205 236 234 249 230 271 321 175 196 180 179 171 195 190 134 185 103 130 28 4 346 337 335 337 335 335 336 334 335 338 340 343 345 342
258 240 234 241 261 226 215 222 199 185 181 174 179 171 175 152 155 197 219 195 193 241 223 235 215 218 264 230 165 203 197 152 163 179 208 208 145 77 359 354 344 343 347 347 342 336 347 337 337 341 347 347 349 345
252 230 225 228 251 232 217 222 202 195 188 177 148 151 157 188 212 242 215 186 207 241 210 204 206 211 258 257 81 357 112 58 201 142 218 165 119 29 347 334 336 341 342 350 356 357 356 349 350 357 357 353 357 354
255 223 219 217 240 234 225 219 202 197 163 138 144 151 181 170 238 221 216 193 228 218 215 204 187 190 215 206 124 107 209 221 124 192 136 83 136 352 343 336 334 339 340 348 348 356 352 353 5 9 4 9 8 4
231 218 220 216 240 232 215 203 196 180 165 145 161 187 213 193 235 201 223 326 313 264 292 263 235 197 181 97 157 127 247 138 226 105 92 156 203 2 334 337 338 335 341 347 354 357 354 354 5 14 16 16 13 9
218 219 220 229 235 214 203 197 185 184 144 170 192 219 216 235 229 230 241 261 242 266 285 287 261 164 126 116 29 51 325 41 45 154 180 170 76 350 343 331 341 12 16 358 356 359 357 358 4 11 16 15 17 17
216 228 230 237 225 197 193 183 177 179 166 189 219 248 258 283 251 215 245 260 280 279 290 210 96 66 358 146 103 208 99 196 173 161 184 175 162 347 334 10 38 32 20 16 10 16 12 5 359 6 14 15 22 23
209 233 237 213 188 188 182 170 160 168 201 216 233 235 254 295 265 237 226 262 257 284 261 115 187 204 160 102 112 120 179 191 151 155 167 182 152 87 18 33 31 24 25 25 22 18 15 16 17 10 15 15 20 26
222 226 204 184 179 172 164 156 147 185 228 231 244 237 222 225 255 264 277 307 271 22 324 233 212 147 160 149 248 213 154 150 165 158 139 138 141 117 44 32 36 44 34 28 22 16 14 17 17 13 18 16 20 20
223 208 198 186 178 153 138 172 170 219 228 248 233 241 245 258 249 251 285 284 256 250 287 290 328 136 204 161 149 154 157 157 151 143 131 131 144 93 76 76 65 36 29 31 30 23 19 18 19 18 18 22 23 21
207 194 188 181 171 111 125 160 178 211 231 216 229 239 223 241 231 255 275 279 292 244 337 42 106 166 153 144 151 147 158 174 155 148 148 139 135 114 107 79 55 33 30 35 32 25 23 21 17 14 17 19 23 24
170 170 169 169 127 112 142 171 187 212 230 209 215 202 221 222 237 260 276 244 224 224 128 133 116 112 124 130 136 131 109 174 167 136 119 115 119 119 102 77 60 40 31 30 26 27 23 22 18 10 13 23 23 25
156 164 154 165 98 134 174 187 205 201 219 240 189 190 197 172 192 239 241 215 215 196 154 150 140 137 130 128 125 120 117 131 130 125 121 125 124 124 91 54 43 51 34 31 23 25 20 18 21 14 13 24 28 23
161 161 136 123 135 183 212 190 191 210 228 184 156 193 205 187 198 205 232 198 141 155 164 154 149 155 140 133 134 126 136 125 110 105 141 131 127 130 100 73 51 46 38 35 19 26 23 16 18 16 15 20 22 27
158 129 143 165 172 192 179 188 209 221 192 188 182 215 205 189 186 159 218 165 149 157 159 161 163 152 145 156 153 119 148 161 152 116 118 133 133 128 104 90 67 51 45 33 19 32 26 20 20 13 12 17 20 20
123 174 165 176 195 190 206 169 191 197 216 171 189 117 264 108 98 182 206 182 164 165 168 169 170 168 149 141 139 132 153 174 149 143 113 109 131 133 110 79 52 47 36 22 25 27 24 18 20 18 14 15 14 16
148 179 187 187 185 194 184 173 190 186 168 144 153 146 228 116 159 213 242 181 177 172 173 170 162 159 155 161 158 134 140 157 159 141 131 170 140 132 89 27 82 52 30 9 10 13 11 8 7 4 7 10 7 7
173 181 198 206 189 171 186 203 154 146 193 174 142 161 180 151 171 297 102 169 183 182 183 188 180 167 160 155 160 152 146 175 191 136 126 146 163 87 64 74 72 54 9 357 356 4 1 357 358 357 359 1 3 3
220 174 172 173 176 195 180 156 165 175 169 146 134 174 153 118 163 151 130 99 166 171 175 168 174 173 162 158 158 163 160 155 147 134 122 114 105 89 81 65 46 356 343 345 345 344 346 346 349 349 350 354 355 356
210 172 134 147 143 186 207 186 160 167 288 145 110 113 110 80 112 110 98 142 156 157 141 140 141 153 151 151 148 144 149 157 161 160 143 136 141 122 224 301 294 306 305 313 324 326 332 335 335 337 340 346 350 349
175 145 112 149 148 124 55 124 147 189 155 140 112 118 111 94 122 127 128 150 145 144 147 152 151 156 152 157 150 147 156 178 199 199 176 157 151 171 293 306 308 307 309 311 319 325 330 334 336 338 343 348 351 353
151 136 105 76 84 47 123 116 111 119 124 121 134 126 121 110 102 115 127 136 148 145 146 149 156 168 166 152 150 160 145 136 144 162 182 209 249 281 289 293 299 309 317 325 331 333 337 342 346 351 354 357 358 359
146 141 124 115 92 99 110 77 78 98 99 102 98 119 121 123 79 108 113 146 155 160 161 169 172 164 163 158 146 129 119 135 142 143 259 273 286 293 294 293 296 305 318 331 337 342 348 354 358 2 4 5 6 7
118 120 114 109 113 104 107 105 84 76 63 75 77 87 89 78 91 99 98 147 174 181 178 167 155 145 146 150 150 149 164 192 255 274 276 300 304 303 296 299 311 328 338 345 350 355 1 5 8 10 10 10 10 11
Wind_Speed_850mb
51 47 41 40 38 35 38 35 34 37 34 27 25 22 22 20 16 20 21 21 22 14 43 49 32 21 21 22 4 19 16 11 9 9 5 5 4 4 5 6 3 3 3 4 4 4 13 22 6 6 9 39 47 60
46 44 42 41 38 39 41 36 35 33 28 26 23 19 21 19 16 21 21 25 19 26 30 41 59 54 52 47 30 14 8 6 6 5 4 5 4 5 2 4 7 3 3 4 8 10 5 24 31 17 49 54 63 68
35 33 36 40 44 50 43 34 30 29 29 25 22 19 21 19 21 17 26 24 28 25 44 25 12 20 32 24 40 14 2 5 4 8 3 3 2 5 1 2 3 3 8 4 10 3 14 51 32 52 59 62 79 81
33 34 33 37 42 40 34 34 29 30 28 23 21 20 21 21 23 20 26 28 27 11 9 14 13 22 12 10 27 35 15 5 10 4 2 2 3 3 3 4 4 6 8 7 9 16 43 13 53 64 76 80 76 76
34 35 33 35 37 33 32 27 24 23 23 22 21 19 20 18 24 20 24 35 28 14 8 22 42 29 19 19 25 25 23 9 2 4 3 4 5 5 4 1 2 2 4 2 7 35 22 48 69 72 75 82 66 65
41 39 39 35 36 33 30 25 21 21 23 22 19 19 17 19 19 15 9 10 12 25 8 7 19 17 25 32 35 30 26 11 7 1 5 8 4 3 2 3 2 6 8 19 17 47 43 57 59 66 78 70 52 90
42 40 36 36 35 32 32 25 22 23 22 22 23 20 16 24 19 17 7 12 8 15 7 9 11 13 13 41 36 32 26 9 7 8 5 6 2 1 2 3 11 25 36 33 13 36 34 45 64 76 73 56 80 87
39 37 36 33 32 34 24 22 25 24 26 23 19 14 18 13 15 28 28 27 24 14 8 5 7 12 13 18 12 15 10 8 8 6 6 2 1 5 4 9 22 35 38 16 38 44 46 56 64 69 75 78 65 100
39 38 37 33 32 26 20 19 19 26 29 24 19 18 17 11 10 10 10 8 24 13 5 5 4 5 6 17 10 6 14 4 7 4 2 2 3 3 2 10 28 33 28 38 49 48 48 56 63 68 75 75 73 100
37 36 36 32 27 24 19 17 23 33 33 26 22 10 7 6 9 12 2 7 12 9 9 7 7 6 12 9 21 13 13 7 6 3 7 1 1 10 10 18 22 29 35 37 44 51 54 57 61 67 70 70 70 92
35 36 36 27 23 25 22 21 36 40 37 30 13 8 9 10 12 7 8 9 9 6 11 13 20 8 12 6 4 11 6 6 3 4 4 5 2 3 12 24 26 30 34 34 36 41 43 50 58 61 69 72 77 83
31 36 35 27 24 27 26 30 45 51 27 22 15 14 11 8 8 6 5 7 8 6 11 11 21 27 13 5 5 6 2 2 4 16 4 4 4 4 15 22 27 30 35 42 46 45 45 52 55 54 61 71 78 82
30 35 33 29 30 26 32 36 50 47 29 27 7 8 7 7 5 8 7 5 5 8 13 12 7 13 12 6 2 3 1 3 26 6 3 3 7 5 20 26 27 28 32 39 47 45 44 60 58 51 55 63 71 79
29 35 33 33 34 32 38 49 58 51 23 8 11 8 7 7 8 7 4 4 7 19 27 14 6 11 5 4 4 3 5 7 4 3 3 2 1 11 19 21 25 29 31 36 44 45 42 59 64 49 53 59 67 80
24 26 25 32 22 32 46 64 61 48 10 10 9 8 11 19 3 8 15 17 31 28 38 18 10 9 1 4 1 4 4 1 3 2 3 8 4 10 15 20 30 22 28 36 42 41 42 52 57 53 54 59 64 70
25 24 36 31 28 42 60 66 56 36 11 9 9 7 16 2 5 10 13 25 25 26 18 8 4 4 2 6 3 5 3 4 5 5 9 10 4 5 11 19 21 24 30 39 44 39 42 49 54 48 52 54 58 64
29 38 28 30 37 59 71 62 28 11 9 8 11 23 26 13 13 10 16 28 29 28 3 1 3 11 4 5 1 3 8 7 16 19 18 11 13 1 16 16 17 19 32 39 43 44 55 59 51 51 56 61 53 58
31 31 26 43 64 80 58 20 11 13 11 19 8 12 19 16 11 18 23 22 7 4 4 5 3 3 6 7 5 6 10 18 20 23 12 19 13 6 17 21 16 22 28 34 39 39 53 61 70 63 48 55 48 55
37 33 39 57 73 46 14 17 11 8 18 9 24 17 13 15 21 25 28 25 10 7 10 5 1 3 4 6 14 25 30 36 36 23 21 18 13 12 14 19 18 23 26 29 36 41 46 54 62 66 44 53 53 52
34 35 60 76 67 11 10 9 16 9 7 12 14 16 16 11 16 17 21 13 11 7 3 3 1 5 14 28 29 24 19 36 32 28 15 13 22 19 19 16 20 24 27 29 33 38 43 49 52 61 61 46 55 54
65 80 73 66 26 10 7 10 12 9 7 12 15 16 6 14 16 16 19 16 7 4 3 13 33 34 35 37 33 25 20 35 28 36 34 31 25 20 19 17 18 24 29 30 34 38 45 48 44 47 61 46 40 49
68 74 56 41 6 6 6 13 7 6 7 6 10 15 6 8 7 13 12 8 5 4 14 35 41 39 35 30 25 24 24 26 30 29 26 22 20 15 13 15 12 22 26 28 30 33 37 41 38 40 52 54 52 42
80 53 18 9 5 9 8 13 9 8 5 7 15 6 5 8 15 20 5 10 6 13 34 41 36 29 30 32 29 25 21 29 27 22 27 20 15 16 13 16 15 12 17 21 21 22 27 30 31 37 46 49 53 59
48 15 10 16 12 9 9 12 9 7 8 5 6 5 6 13 16 9 4 9 26 37 42 42 38 36 25 23 30 18 31 25 24 24 24 20 23 22 16 18 15 14 15 11 17 17 22 27 27 32 41 46 44 52
14 11 12 8 13 12 9 10 8 6 7 6 9 4 4 3 4 2 5 16 35 44 44 42 39 30 33 35 27 24 14 17 22 24 17 17 22 23 19 16 14 16 18 13 22 19 22 25 26 28 35 43 43 50
7 12 16 19 11 9 8 10 10 9 4 6 5 9 5 4 6 5 4 32 41 53 53 44 31 34 34 38 31 22 37 28 22 19 17 12 11 8 7 8 8 15 20 22 22 26 19 24 27 31 37 41 44 48
9 8 14 14 10 7 6 5 9 7 8 7 7 7 4 6 3 4 7 16 35 45 43 37 31 42 49 43 36 30 25 20 10 12 12 5 6 3 8 16 17 12 15 21 24 27 25 26 29 34 37 38 42 44
8 9 9 17 9 9 4 6 5 7 6 13 12 5 8 4 3 4 10 11 18 38 32 28 32 49 54 43 33 22 20 20 18 16 23 21 15 14 12 10 9 9 14 19 23 27 30 31 33 38 38 39 40 40
4 9 16 8 3 6 10 6 6 6 3 16 6 5 4 7 16 12 20 31 29 36 48 61 63 55 46 37 32 31 31 28 24 25 26 28 18 9 1 7 8 12 17 20 24 31 34 35 37 37 36 36 36 36
11 14 7 5 5 2 4 6 7 6 12 22 19 35 37 30 24 18 25 35 40 47 53 51 53 45 43 37 34 27 21 18 28 38 34 25 14 7 9 14 16 18 21 24 27 32 35 34 32 30 31 33 34 36
24 10 6 6 4 8 23 26 24 27 34 40 42 44 40 31 40 35 33 34 41 47 47 46 38 30 30 23 14 17 26 24 22 22 16 11 9 14 15 17 21 24 27 28 31 36 36 33 30 30 31 33 35 36
14 7 10 5 4 26 37 23 18 27 27 27 17 21 25 23 12 15 25 35 40 42 43 43 44 42 32 24 19 16 18 21 14 5 5 10 12 14 16 19 21 22 24 28 31 30 28 26 26 28 29 31 32 34
12 14 20 10 7 7 10 14 8 8 9 7 8 15 13 8 6 7 18 23 34 39 41 41 39 34 28 23 19 15 11 6 3 1 1 3 5 7 11 14 16 20 22 23 24 25 24 24 25 26 27 29 31 32
Wind_Direction_850mb
283 284 281 284 283 291 300 301 302 300 291 288 285 283 290 292 261 261 301 301 253 247 278 276 271 250 253 279 302 329 336 353 24 42 35 307 55 316 29 344 199 136 272 261 1 288 283 8 359 356 293 318 312 307
285 276 276 276 280 284 289 295 294 289 286 280 276 267 276 282 249 251 289 305 278 249 263 279 288 282 262 246 268 298 282 351 29 74 8 330 345 2 220 293 17 1 127 249 190 234 306 339 337 308 329 316 313 313
279 281 279 275 274 279 286 289 289 287 281 268 264 257 267 255 239 257 265 302 313 271 288 279 299 278 302 280 243 239 228 25 65 24 213 236 272 120 297 336 322 56 17 229 8 327 331 322 326 324 321 316 314 311
277 282 285 285 281 281 281 281 279 283 276 262 251 241 262 247 234 255 255 295 309 270 279 286 269 242 271 273 193 206 251 298 3 320 65 189 194 308 219 232 176 215 360 319 258 290 323 303 319 324 321 313 310 317
273 277 286 293 291 280 279 279 277 270 263 251 238 239 255 236 231 257 264 295 286 236 286 287 297 247 264 222 198 204 218 221 21 6 9 249 313 18 356 312 242 131 248 285 271 310 300 298 310 315 314 315 322 327
273 271 272 282 286 272 266 274 280 272 259 240 225 244 248 213 229 231 287 277 285 223 289 295 316 286 236 235 197 200 208 181 125 40 277 283 249 159 238 236 148 49 335 301 282 303 307 303 311 323 320 326 334 331
269 267 271 274 276 274 256 254 263 266 245 224 223 225 247 209 221 214 226 306 294 173 264 293 287 279 322 177 189 192 197 180 176 161 226 250 285 98 213 258 13 338 331 325 322 324 319 328 316 326 332 330 327 333
269 264 264 273 279 264 246 254 253 241 219 212 216 224 197 210 223 247 261 275 235 208 257 274 274 300 178 168 171 161 170 222 229 234 222 247 189 207 246 10 345 346 338 328 327 330 326 325 330 336 335 332 338 337
267 258 255 265 279 249 237 243 234 215 203 198 190 191 202 213 228 249 302 241 191 208 256 242 266 286 324 173 144 169 210 181 213 213 138 102 234 215 23 341 351 340 336 318 327 336 335 337 335 337 339 343 343 340
261 251 246 258 274 231 233 228 215 198 189 183 179 171 200 215 193 154 168 173 205 236 234 249 230 271 321 175 196 180 179 171 195 190 134 185 103 130 28 4 346 337 335 337 335 335 336 334 335 338 340 343 345 342
258 240 234 241 261 226 215 222 199 185 181 174 179 171 175 152 155 197 219 195 193 241 223 235 215 218 264 230 165 203 197 152 163 179 208 208 145 77 359 354 344 343 347 347 342 336 347 337 337 341 347 347 349 345
252 230 225 228 251 232 217 222 202 195 188 177 148 151 157 188 212 242 215 186 207 241 210 204 206 211 258 257 81 357 112 58 201 142 218 165 119 29 347 334 336 341 342 350 356 357 356 349 350 357 357 353 357 354
255 223 219 217 240 234 225 219 202 197 163 138 144 151 181 170 238 221 216 193 228 218 215 204 187 190 215 206 124 107 209 221 124 192 136 83 136 352 343 336 334 339 340 348 348 356 352 353 5 9 4 9 8 4
231 218 220 216 240 232 215 203 196 180 165 145 161 187 213 193 235 201 223 326 313 264 292 263 235 197 181 97 157 127 247 138 226 105 92 156 203 2 334 337 338 335 341 347 354 357 354 354 5 14 16 16 13 9
218 219 220 229 235 214 203 197 185 184 144 170 192 219 216 235 229 230 241 261 242 266 285 287 261 164 126 116 29 51 325 41 45 154 180 170 76 350 343 331 341 12 16 358 356 359 357 358 4 11 16 15 17 17
216 228 230 237 225 197 193 183 177 179 166 189 219 248 258 283 251 215 245 260 280 279 290 210 96 66 358 146 103 208 99 196 173 161 184 175 162 347 334 10 38 32 20 16 10 16 12 5 359 6 14 15 22 23
209 233 237 213 188 188 182 170 160 168 201 216 233 235 254 295 265 237 226 262 257 284 261 115 187 204 160 102 112 120 179 191 151 155 167 182 152 87 18 33 31 24 25 25 22 18 15 16 17 10 15 15 20 26
222 226 204 184 179 172 164 156 147 185 228 231 244 237 222 225 255 264 277 307 271 22 324 233 212 147 160 149 248 213 154 150 165 158 139 138 141 117 44 32 36 44 34 28 22 16 14 17 17 13 18 16 20 20
223 208 198 186 178 153 138 172 170 219 228 248 233 241 245 258 249 251 285 284 256 250 287 290 328 136 204 161 149 154 157 157 151 143 131 131 144 93 76 76 65 36 29 31 30 23 19 18 19 18 18 22 23 21
207 194 188 181 171 111 125 160 178 211 231 216 229 239 223 241 231 255 275 279 292 244 337 42 106 166 153 144 151 147 158 174 155 148 148 139 135 114 107 79 55 33 30 35 32 25 23 21 17 14 17 19 23 24
170 170 169 169 127 112 142 171 187 212 230 209 215 202 221 222 237 260 276 244 224 224 128 133 116 112 124 130 136 131 109 174 167 136 119 115 119 119 102 77 60 40 31 30 26 27 23 22 18 10 13 23 23 25
156 164 154 165 98 134 174 187 205 201 219 240 189 190 197 172 192 239 241 215 215 196 154 150 140 137 130 128 125 120 117 131 130 125 121 125 124 124 91 54 43 51 34 31 23 25 20 18 21 14 13 24 28 23
161 161 136 123 135 183 212 190 191 210 228 184 156 193 205 187 198 205 232 198 141 155 164 154 149 155 140 133 134 126 136 125 110 105 141 131 127 130 100 73 51 46 38 35 19 26 23 16 18 16 15 20 22 27
158 129 143 165 172 192 179 188 209 221 192 188 182 215 205 189 186 159 218 165 149 157 159 161 163 152 145 156 153 119 148 161 152 116 118 133 133 128 104 90 67 51 45 33 19 32 26 20 20 13 12 17 20 20
123 174 165 176 195 190 206 169 191 197 216 171 189 117 264 108 98 182 206 182 164 165 168 169 170 168 149 141 139 132 153 174 149 143 113 109 131 133 110 79 52 47 36 22 25 27 24 18 20 18 14 15 14 16
148 179 187 187 185 194 184 173 190 186 168 144 153 146 228 116 159 213 242 181 177 172 173 170 162 159 155 161 158 134 140 157 159 141 131 170 140 132 89 27 82 52 30 9 10 13 11 8 7 4 7 10 7 7
173 181 198 206 189 171 186 203 154 146 193 174 142 161 180 151 171 297 102 169 183 182 183 188 180 167 160 155 160 152 146 175 191 136 126 146 163 87 64 74 72 54 9 357 356 4 1 357 358 357 359 1 3 3
220 174 172 173 176 195 180 156 165 175 169 146 134 174 153 118 163 151 130 99 166 171 175 168 174 173 162 158 158 163 160 155 147 134 122 114 105 89 81 65 46 356 343 345 345 344 346 346 349 349 350 354 355 356
210 172 134 147 143 186 207 186 160 167 288 145 110 113 110 80 112 110 98 142 156 157 141 140 141 153 151 151 148 144 149 157 161 160 143 136 141 122 224 301 294 306 305 313 324 326 332 335 335 337 340 346 350 349
175 145 112 149 148 124 55 124 147 189 155 140 112 118 111 94 122 127 128 150 145 144 147 152 151 156 152 157 150 147 156 178 199 199 176 157 151 171 293 306 308 307 309 311 319 325 330 334 336 338 343 348 351 353
151 136 105 76 84 47 123 116 111 119 124 121 134 126 121 110 102 115 127 136 148 145 146 149 156 168 166 152 150 160 145 136 144 162 182 209 249 281 289 293 299 309 317 325 331 333 337 342 346 351 354 357 358 359
146 141 124 115 92 99 110 77 78 98 99 102 98 119 121 123 79 108 113 146 155 160 161 169 172 164 163 158 146 129 119 135 142 143 259 273 286 293 294 293 296 305 318 331 337 342 348 354 358 2 4 5 6 7
118 120 114 109 113 104 107 105 84 76 63 75 77 87 89 78 91 99 98 147 174 181 178 167 155 145 146 150 150 149 164 192 255 274 276 300 304 303 296 299 311 328 338 345 350 355 1 5 8 10 10 10 10 11